Weather Roundup
Issued by NWS

Home | Current Version | Previous Version | Graphics & Text | Print | Product List | Glossary Off
Versions: 1 2 3 4 5 6 7 8 9 10 11 12 13 14 15 16 17 18 19 20 21 22 23 24 25 26 27 28 29 30 31 32 33 34 35 36 37 38 39 40 41 42 43 44 45 46 47 48 49 50

048
NZUS93 KARX 221859
HRRWXR

CURRENT HOURLY OBSERVATIONS ACROSS
MUCH OF THE UPPER MISSISSIPPI VALLEY
NATIONAL WEATHER SERVICE LA CROSSE WI
200 PM CDT SUN OCT 22 2017


...SOUTHEAST MINNESOTA...


CITY           SKY/WX    TMP DP  RH WIND       PRES   REMARKS
ROCHESTER      CLOUDY    58  39  49 W12       30.00F
ROCHESTER/MAYO FAIR      57  35  42 W10G22    29.99F
WINONA         CLOUDY    54  41  62 CALM      30.00F
AUSTIN         CLOUDY    59  34  38 NW12G18   30.00F
ALBERT LEA     NOT AVBL
DODGE CENTER   MOSUNNY   59  34  38 W12G18    29.99F
PRESTON        CLOUDY    55  38  54 NW12      30.01F
OWATONNA       SUNNY     63  37  39 W17       30.00F
FARIBAULT      SUNNY     63  37  39 W10G22    29.99F
$$

...ELSEWHERE IN MINNESOTA...


CITY           SKY/WX    TMP DP  RH WIND       PRES   REMARKS
MINNEAPOLIS    MOSUNNY   62  36  37 W13       29.97F
INTNL FALLS    SUNNY     58  33  39 SW12G24   29.76F
DULUTH         SUNNY     57  35  43 W17       29.86F
RED WING       MOSUNNY   61  36  39 W6        29.96F
REDWOOD FALLS  SUNNY     64  28  25 W13G21    29.97F
MANKATO        SUNNY     62  32  32 W16       29.99F
WORTHINGTON    SUNNY     62  31  31 SW13G20   30.01F
FAIRMONT       SUNNY     62  29  28 W14       30.01F
$$

...SOUTHWEST WISCONSIN...


CITY           SKY/WX    TMP DP  RH WIND       PRES   REMARKS
LA CROSSE      CLOUDY    56  43  61 NW5       30.00S
PRAIRIE DU CHI LGT RAIN  54  44  69 W3        30.03R
BOSCOBEL       CLOUDY    54  46  74 W3        30.03R
LONE ROCK      NOT AVBL
PLATTEVILLE    CLOUDY    52  49  89 N8        30.02R
FORT MC COY    CLOUDY    52  45  76 W3        30.00F
MAUSTON-NEW LI CLOUDY    52  47  83 W5        29.99S HAZE
VIROQUA        CLOUDY    51  47  87 W6        30.02R
WIS DELLS      DRIZZLE   50  47  88 W6        29.99S
$$

...ELSEWHERE IN WISCONSIN...


CITY           SKY/WX    TMP DP  RH WIND       PRES   REMARKS
MILWAUKEE      LGT RAIN  54  51  90 NW18G31   29.96R
MADISON        CLOUDY    52  48  86 NW5       29.98F
GREEN BAY      LGT RAIN  52  52 100 CALM      29.97R
EAU CLAIRE     NOT AVBL
BLACK RVR FLS  MOCLDY    54  43  67 W5        29.99R
MEDFORD        CLOUDY    49  42  77 W8        29.96F
WAUSAU         CLOUDY    50  45  83 W7        29.94F
WIS RAPIDS     CLOUDY    50  48  93 W5        29.99F
MARSHFIELD     CLOUDY    50  43  77 NW7       29.96F
RICE LAKE      CLOUDY    57  36  45 W8G16     29.96F
$$

...NORTHEAST IOWA...


CITY           SKY/WX    TMP DP  RH WIND       PRES   REMARKS
WATERLOO       CLOUDY    57  45  64 VRB5      30.04S
DUBUQUE        CLOUDY    52  46  80 NW7       30.03R
DECORAH        CLOUDY    52  45  76 W5        30.02S
MASON CITY     MOSUNNY   62  35  36 W13       30.03F
CHARLES CITY   CLOUDY    61  36  39 NW12      30.03S
OELWEIN        CLOUDY    54  46  76 NW7       30.05S
$$

...ELSEWHERE IN IOWA...


CITY           SKY/WX    TMP DP  RH WIND       PRES   REMARKS
DES MOINES     MOSUNNY   64  38  38 NW13      30.06F
IOWA CITY      LGT RAIN  56  48  74 NW5       30.06R
FORT DODGE     SUNNY     64  33  31 W10       30.04F
MARSHALLTOWN   CLOUDY    60  42  51 W12       30.05S
CEDAR RAPIDS   CLOUDY    54  47  77 NW9       30.05R
$$

...NORTHERN ILLINOIS...


CITY           SKY/WX    TMP DP  RH WIND       PRES   REMARKS
CHICAGO-OHARE  CLOUDY    69  61  75 S10       29.90F
CHICAGO-MIDWAY CLOUDY    72  61  68 S16G28    29.91S
MOLINE         CLOUDY    54  46  74 N6        30.02R
ROCKFORD       CLOUDY    52  47  83 N14       30.02R
PEORIA         LGT RAIN  52  51  97 N10G23    30.01R
$$

NOTE: "FAIR" INDICATES FEW OR NO CLOUDS BELOW 12,000 FEET WITH NO
SIGNIFICANT WEATHER AND/OR OBSTRUCTIONS TO VISIBILITY. WIND
SPEEDS ARE IN MILES-PER-HOUR.




USA.gov is the U.S. government's official web portal to all federal, state and local government web resources and services.